7 * 24
多渠道服务支持
STARLINK-33550 是 SpaceX Starlink 卫星互联网项目中的一颗低轨卫星,属于第二代 Starlink 卫星(v1.5 或 v2 版本)。该卫星于2023年发射,旨在为全球用户提供高速、低延迟的宽带互联网服务。它运行在约550公里高的近地轨道,配备先进通信设备和可展开的太阳能板,支持Ka/Ku频段通信。Starlink 项目致力于构建全球覆盖的卫星网络,尤其服务于偏远地区,同时具备一定的抗干扰和冗余能力,以提升网络稳定性与安全性。
美国
(US)
| 数据来源 | 国际轨道数据 |
| 星历时间: | 2025-11-07T04:03:20+0800 1天前 查看轨道信息 |
| 半长轴: | 6861.148km |
| 偏心率: | 0.0001822 |
| 轨道倾角: | 43.000° |
| 近地点辐角 | 288.307° |
| 升交点赤经 | 190.119° |
| 平近点角 | 71.758° |
| 近地点: | 481.762km |
| 远地点: | 484.264km |
| 周期: | 94.266分钟 |
| 每日圈数: | 15.275928 |